LVMGN SAZM-SADF

Flight info

Callsign LVMGN
Flight time N/A
Altitude 23000
Route PULPA1G PULPA W31 TENIL/N0283F300 DCT EZE DCT TRINI
Aircraft SF50/L-SDGRWY/L

Departure

Time 2026-04-26 19:36
Airport Ástor Piazzola International Airport (SAZM)

Arrival

Time N/A
Airport San Fernando Airport (SADF)
Time Latitude Longitude Altitude Speed Heading
2026-04-26 19:21 -37.93438 -57.57993 73 ft 0 kts 120°
2026-04-26 19:30 -37.93438 -57.57980 73 ft 3 kts 50°
2026-04-26 19:30 -37.93415 -57.57924 73 ft 11 kts 102°
2026-04-26 19:30 -37.93456 -57.57814 73 ft 15 kts 119°
2026-04-26 19:30 -37.93491 -57.57731 73 ft 16 kts 118°
2026-04-26 19:31 -37.93560 -57.57577 73 ft 13 kts 120°
2026-04-26 19:31 -37.93602 -57.57481 73 ft 11 kts 118°
2026-04-26 19:31 -37.93635 -57.57404 73 ft 9 kts 119°
2026-04-26 19:31 -37.93668 -57.57332 73 ft 10 kts 121°
2026-04-26 19:32 -37.93706 -57.57250 73 ft 11 kts 120°
2026-04-26 19:32 -37.93749 -57.57155 73 ft 12 kts 120°
2026-04-26 19:32 -37.93791 -57.57059 73 ft 12 kts 119°
2026-04-26 19:32 -37.93830 -57.56963 73 ft 12 kts 118°
2026-04-26 19:33 -37.93868 -57.56874 73 ft 0 kts 120°
2026-04-26 19:33 -37.93868 -57.56873 73 ft 0 kts 120°
2026-04-26 19:33 -37.93898 -57.56807 73 ft 1 kts 118°
2026-04-26 19:34 -37.93919 -57.56760 73 ft 18 kts 120°
2026-04-26 19:34 -37.93998 -57.56578 73 ft 23 kts 121°
2026-04-26 19:34 -37.94011 -57.56410 73 ft 17 kts 66°
2026-04-26 19:35 -37.93923 -57.56373 73 ft 18 kts 314°
2026-04-26 19:35 -37.93795 -57.56593 73 ft 62 kts 304°
2026-04-26 19:35 -37.93435 -57.57289 149 ft 116 kts 305°
2026-04-26 19:35 -37.92947 -57.58283 372 ft 144 kts 300°
2026-04-26 19:36 -37.92473 -57.59433 700 ft 153 kts 296°
2026-04-26 19:36 -37.92182 -57.60270 953 ft 155 kts 292°
2026-04-26 19:36 -37.91642 -57.61990 1400 ft 163 kts 289°
2026-04-26 19:36 -37.91127 -57.63379 1591 ft 189 kts 299°
2026-04-26 19:37 -37.90389 -57.64875 1881 ft 211 kts 302°
2026-04-26 19:37 -37.89565 -57.66512 2167 ft 229 kts 302°
2026-04-26 19:37 -37.88690 -57.68262 2448 ft 243 kts 302°
2026-04-26 19:37 -37.87762 -57.70124 2729 ft 254 kts 301°
2026-04-26 19:38 -37.86806 -57.72043 3006 ft 262 kts 301°
2026-04-26 19:38 -37.85640 -57.73769 3374 ft 264 kts 326°
2026-04-26 19:38 -37.83995 -57.74818 3743 ft 265 kts 343°
2026-04-26 19:38 -37.82187 -57.75061 4102 ft 265 kts
2026-04-26 19:39 -37.80337 -57.74916 4448 ft 266 kts
2026-04-26 19:39 -37.78509 -57.74732 4779 ft 268 kts
2026-04-26 19:39 -37.76641 -57.74549 5107 ft 269 kts
2026-04-26 19:39 -37.74767 -57.74369 5422 ft 270 kts
2026-04-26 19:40 -37.72884 -57.74190 5729 ft 272 kts
2026-04-26 19:40 -37.71017 -57.74013 6024 ft 273 kts
2026-04-26 19:40 -37.69118 -57.73834 6314 ft 274 kts
2026-04-26 19:40 -37.67219 -57.73657 6594 ft 275 kts
2026-04-26 19:41 -37.65314 -57.73480 6869 ft 276 kts
2026-04-26 19:41 -37.63398 -57.73304 7144 ft 277 kts
2026-04-26 19:41 -37.61480 -57.73129 7419 ft 277 kts
2026-04-26 19:41 -37.60207 -57.73013 7601 ft 277 kts
2026-04-26 19:42 -37.57630 -57.72781 7969 ft 277 kts
2026-04-26 19:42 -37.55736 -57.72612 8240 ft 277 kts
2026-04-26 19:42 -37.53799 -57.72440 8518 ft 277 kts
2026-04-26 19:42 -37.51895 -57.72272 8792 ft 277 kts
2026-04-26 19:43 -37.49977 -57.72105 9068 ft 276 kts
2026-04-26 19:43 -37.48059 -57.71939 9346 ft 276 kts
2026-04-26 19:43 -37.46153 -57.71776 9620 ft 275 kts
2026-04-26 19:43 -37.44249 -57.71615 9893 ft 275 kts
2026-04-26 19:44 -37.42334 -57.71454 10171 ft 274 kts
2026-04-26 19:44 -37.40461 -57.71297 10444 ft 274 kts
2026-04-26 19:44 -37.38556 -57.71138 10716 ft 273 kts
2026-04-26 19:44 -37.36666 -57.70985 10996 ft 272 kts
2026-04-26 19:45 -37.34778 -57.70836 11272 ft 272 kts
2026-04-26 19:45 -37.32907 -57.70690 11547 ft 271 kts
2026-04-26 19:45 -37.31032 -57.70543 11823 ft 270 kts
2026-04-26 19:45 -37.29160 -57.70396 12101 ft 269 kts
2026-04-26 19:46 -37.27292 -57.70251 12373 ft 274 kts
2026-04-26 19:46 -37.25377 -57.70101 12652 ft 279 kts
2026-04-26 19:46 -37.23440 -57.69951 12929 ft 283 kts
2026-04-26 19:46 -37.21459 -57.69796 13209 ft 287 kts
2026-04-26 19:47 -37.19453 -57.69639 13488 ft 289 kts
2026-04-26 19:47 -37.18119 -57.69535 13673 ft 290 kts
2026-04-26 19:47 -37.15426 -57.69325 14044 ft 292 kts
2026-04-26 19:47 -37.13405 -57.69168 14321 ft 293 kts
2026-04-26 19:48 -37.11362 -57.69009 14600 ft 294 kts
2026-04-26 19:48 -37.09314 -57.68850 14879 ft 294 kts
2026-04-26 19:48 -37.07295 -57.68693 15154 ft 295 kts
2026-04-26 19:48 -37.05260 -57.68534 15430 ft 295 kts
2026-04-26 19:49 -37.03209 -57.68375 15709 ft 295 kts
2026-04-26 19:49 -37.01150 -57.68215 15988 ft 295 kts
2026-04-26 19:49 -36.99128 -57.68195 16264 ft 294 kts 355°
2026-04-26 19:49 -36.97097 -57.68368 16542 ft 294 kts 353°
2026-04-26 19:50 -36.95075 -57.68573 16818 ft 293 kts 353°
2026-04-26 19:50 -36.93026 -57.68788 17099 ft 293 kts 353°
2026-04-26 19:50 -36.91020 -57.69001 17375 ft 293 kts 353°
2026-04-26 19:50 -36.88982 -57.69218 17653 ft 293 kts 353°
2026-04-26 19:51 -36.86963 -57.69434 17926 ft 292 kts 353°
2026-04-26 19:51 -36.84958 -57.69648 18198 ft 292 kts 352°
2026-04-26 19:51 -36.82920 -57.69866 18475 ft 292 kts 352°
2026-04-26 19:51 -36.80918 -57.70079 18748 ft 291 kts 352°
2026-04-26 19:52 -36.78916 -57.70293 19021 ft 291 kts 352°
2026-04-26 19:52 -36.76874 -57.70511 19300 ft 290 kts 352°
2026-04-26 19:52 -36.74883 -57.70723 19573 ft 290 kts 352°
2026-04-26 19:52 -36.72868 -57.70937 19850 ft 289 kts 352°
2026-04-26 19:53 -36.70875 -57.71149 20125 ft 288 kts 352°
2026-04-26 19:53 -36.68880 -57.71361 20401 ft 288 kts 352°
2026-04-26 19:53 -36.66918 -57.71570 20673 ft 287 kts 351°
2026-04-26 19:53 -36.64916 -57.71783 20951 ft 286 kts 351°
2026-04-26 19:54 -36.62961 -57.71991 21223 ft 286 kts 351°
2026-04-26 19:54 -36.60987 -57.72200 21499 ft 285 kts 351°
2026-04-26 19:54 -36.59031 -57.72408 21773 ft 284 kts 351°
2026-04-26 19:54 -36.57056 -57.72617 22051 ft 283 kts 351°
2026-04-26 19:55 -36.55111 -57.72823 22325 ft 282 kts 351°
2026-04-26 19:55 -36.53147 -57.73032 22603 ft 282 kts 351°
2026-04-26 19:55 -36.51204 -57.73237 22879 ft 281 kts 351°
2026-04-26 19:55 -36.49279 -57.73441 23154 ft 280 kts 350°
2026-04-26 19:56 -36.47359 -57.73644 23433 ft 278 kts 350°
2026-04-26 19:56 -36.45438 -57.73847 23709 ft 277 kts 350°
2026-04-26 19:56 -36.43522 -57.74050 23963 ft 277 kts 350°
2026-04-26 19:56 -36.41586 -57.74256 24010 ft 285 kts 350°
2026-04-26 19:57 -36.39577 -57.74470 24011 ft 293 kts 350°
2026-04-26 19:57 -36.37545 -57.74685 24008 ft 300 kts 350°
2026-04-26 19:57 -36.35400 -57.74911 24003 ft 306 kts 351°
2026-04-26 19:57 -36.33279 -57.75134 24000 ft 310 kts 351°
2026-04-26 19:58 -36.31136 -57.75359 23996 ft 314 kts 351°
2026-04-26 19:58 -36.28959 -57.75588 23996 ft 317 kts 351°
2026-04-26 19:58 -36.26757 -57.75820 23995 ft 319 kts 351°
2026-04-26 19:58 -36.24548 -57.76052 23995 ft 321 kts 351°
2026-04-26 19:59 -36.22321 -57.76286 23995 ft 323 kts 351°
2026-04-26 19:59 -36.20058 -57.76524 23995 ft 324 kts 351°
2026-04-26 19:59 -36.17816 -57.76759 23995 ft 325 kts 351°
2026-04-26 19:59 -36.15566 -57.76996 23995 ft 326 kts 351°
2026-04-26 20:00 -36.13325 -57.77231 23995 ft 327 kts 351°
2026-04-26 20:00 -36.11046 -57.77469 23995 ft 327 kts 351°
2026-04-26 20:00 -36.08796 -57.77705 23995 ft 328 kts 351°
2026-04-26 20:00 -36.06529 -57.77942 23995 ft 328 kts 351°
2026-04-26 20:01 -36.04250 -57.78181 23995 ft 328 kts 351°
2026-04-26 20:01 -36.02007 -57.78416 23995 ft 329 kts 351°
2026-04-26 20:01 -35.99715 -57.78655 23995 ft 329 kts 351°
2026-04-26 20:01 -35.97442 -57.78892 23995 ft 329 kts 351°
2026-04-26 20:02 -35.95186 -57.79128 23995 ft 329 kts 351°
2026-04-26 20:02 -35.92883 -57.79369 23995 ft 329 kts 351°
2026-04-26 20:02 -35.90608 -57.79606 23995 ft 329 kts 351°
2026-04-26 20:02 -35.89089 -57.79764 23994 ft 329 kts 351°
2026-04-26 20:03 -35.86071 -57.80078 23993 ft 329 kts 351°
2026-04-26 20:03 -35.83765 -57.80319 23993 ft 329 kts 351°
2026-04-26 20:03 -35.81508 -57.80554 23993 ft 329 kts 351°
2026-04-26 20:03 -35.79209 -57.80793 23993 ft 329 kts 351°
2026-04-26 20:04 -35.76951 -57.81028 23993 ft 329 kts 351°
2026-04-26 20:04 -35.74640 -57.81267 23993 ft 329 kts 351°
2026-04-26 20:04 -35.72376 -57.81502 23993 ft 329 kts 351°
2026-04-26 20:04 -35.70083 -57.81741 23993 ft 329 kts 351°
2026-04-26 20:05 -35.67825 -57.81974 23993 ft 329 kts 351°
2026-04-26 20:05 -35.65542 -57.82211 23993 ft 329 kts 351°
2026-04-26 20:05 -35.63273 -57.82446 23993 ft 329 kts 351°
2026-04-26 20:05 -35.60973 -57.82684 23993 ft 329 kts 351°
2026-04-26 20:06 -35.58711 -57.82918 23993 ft 329 kts 351°
2026-04-26 20:06 -35.56430 -57.83156 23993 ft 329 kts 350°
2026-04-26 20:06 -35.54265 -57.83883 23995 ft 320 kts 331°
2026-04-26 20:06 -35.52348 -57.85204 23995 ft 317 kts 323°
2026-04-26 20:07 -35.50518 -57.86731 23994 ft 316 kts 320°
2026-04-26 20:07 -35.48758 -57.88286 23993 ft 315 kts 319°
2026-04-26 20:07 -35.46995 -57.89873 23993 ft 315 kts 319°
2026-04-26 20:07 -35.45229 -57.91472 23910 ft 318 kts 319°
2026-04-26 20:08 -35.43450 -57.93085 23863 ft 319 kts 319°
2026-04-26 20:08 -35.41669 -57.94699 23859 ft 318 kts 319°
2026-04-26 20:08 -35.39899 -57.96303 23858 ft 318 kts 319°
2026-04-26 20:08 -35.38118 -57.97917 23858 ft 317 kts 319°
2026-04-26 20:09 -35.36335 -57.99531 23858 ft 317 kts 319°
2026-04-26 20:09 -35.34587 -58.01112 23858 ft 316 kts 319°
2026-04-26 20:09 -35.32817 -58.02714 23858 ft 316 kts 319°
2026-04-26 20:09 -35.31043 -58.04317 23858 ft 316 kts 319°
2026-04-26 20:10 -35.29291 -58.05900 23858 ft 316 kts 319°
2026-04-26 20:10 -35.27510 -58.07507 23858 ft 316 kts 319°
2026-04-26 20:10 -35.25745 -58.09100 23858 ft 316 kts 319°
2026-04-26 20:10 -35.23986 -58.10687 23858 ft 316 kts 319°
2026-04-26 20:11 -35.22205 -58.12292 23858 ft 315 kts 319°
2026-04-26 20:11 -35.20490 -58.13947 23845 ft 311 kts 309°
2026-04-26 20:11 -35.19522 -58.16242 23853 ft 301 kts 279°
2026-04-26 20:12 -35.20853 -58.20776 23854 ft 299 kts 221°
2026-04-26 20:12 -35.22773 -58.21772 23854 ft 308 kts 191°
2026-04-26 20:12 -35.24905 -58.21498 23864 ft 317 kts 169°
2026-04-26 20:12 -35.27029 -58.20753 23858 ft 318 kts 168°
2026-04-26 20:13 -35.29141 -58.19988 23857 ft 318 kts 168°
2026-04-26 20:13 -35.31251 -58.19223 23857 ft 318 kts 168°
2026-04-26 20:13 -35.33415 -58.18583 23840 ft 313 kts 181°
2026-04-26 20:13 -35.35468 -58.19097 23845 ft 303 kts 209°
2026-04-26 20:14 -35.37001 -58.20773 23846 ft 297 kts 237°
2026-04-26 20:14 -35.37819 -58.23072 23858 ft 296 kts 250°
2026-04-26 20:14 -35.38706 -58.25335 23847 ft 297 kts 232°
2026-04-26 20:14 -35.40395 -58.26775 23852 ft 304 kts 202°
2026-04-26 20:15 -35.42527 -58.26953 23853 ft 315 kts 173°
2026-04-26 20:15 -35.44545 -58.25908 23863 ft 323 kts 155°
2026-04-26 20:15 -35.46503 -58.24533 23857 ft 324 kts 154°
2026-04-26 20:15 -35.48437 -58.23158 23857 ft 324 kts 154°
2026-04-26 20:16 -35.50377 -58.21777 23857 ft 324 kts 154°
2026-04-26 20:16 -35.52338 -58.20380 23857 ft 324 kts 154°
2026-04-26 20:16 -35.54293 -58.18988 23857 ft 324 kts 154°
2026-04-26 20:16 -35.56247 -58.17597 23857 ft 325 kts 154°
2026-04-26 20:17 -35.58175 -58.16223 23857 ft 325 kts 154°
2026-04-26 20:17 -35.60133 -58.14827 23857 ft 325 kts 154°
2026-04-26 20:17 -35.62070 -58.13447 23857 ft 325 kts 154°
2026-04-26 20:17 -35.64012 -58.12062 23857 ft 325 kts 154°
2026-04-26 20:18 -35.65983 -58.10656 23857 ft 325 kts 154°
2026-04-26 20:18 -35.67925 -58.09271 23857 ft 325 kts 154°
2026-04-26 20:18 -35.69883 -58.07874 23856 ft 325 kts 154°
2026-04-26 20:18 -35.71809 -58.06500 23857 ft 325 kts 154°
2026-04-26 20:19 -35.73778 -58.05094 23857 ft 325 kts 154°
2026-04-26 20:19 -35.75714 -58.03711 23857 ft 325 kts 154°
2026-04-26 20:19 -35.77654 -58.02326 23857 ft 325 kts 154°
2026-04-26 20:19 -35.79619 -58.00922 23857 ft 325 kts 154°
2026-04-26 20:20 -35.81556 -57.99538 23857 ft 325 kts 154°
2026-04-26 20:20 -35.83502 -57.98147 23857 ft 325 kts 154°
2026-04-26 20:20 -35.85479 -57.96751 23852 ft 324 kts 157°
2026-04-26 20:20 -35.87599 -57.96196 23845 ft 311 kts 186°
2026-04-26 20:21 -35.89585 -57.96962 23845 ft 301 kts 214°
2026-04-26 20:21 -35.90977 -57.98858 23846 ft 297 kts 243°
2026-04-26 20:21 -35.91720 -58.01212 23857 ft 296 kts 250°
2026-04-26 20:21 -35.92404 -58.03582 23855 ft 297 kts 248°
2026-04-26 20:22 -35.93438 -58.05779 23857 ft 297 kts 234°
2026-04-26 20:22 -35.94796 -58.07690 23857 ft 298 kts 227°
2026-04-26 20:22 -35.96298 -58.09481 23857 ft 299 kts 224°
2026-04-26 20:22 -35.97802 -58.11164 23849 ft 300 kts 224°